Regional Weather Roundup
Issued by NWS

Home | Current Version | Previous Version | Graphics & Text | Print | Product List | Glossary On
Versions: 1 2 3 4 5 6 7 8 9 10 11 12 13 14 15 16 17 18 19 20 21 22 23 24 25 26 27 28 29 30 31 32 33 34 35 36 37 38 39 40 41 42 43 44 45 46 47 48 49 50
000
ASUS45 KTFX 292110
RWRMT
MONTANA REGIONAL WEATHER ROUNDUP
NATIONAL WEATHER SERVICE GREAT FALLS MT
300 PM MDT MON AUG 29 2016

NOTE: "FAIR" INDICATES FEW OR NO CLOUDS BELOW 12000 FEET WITH NO
SIGNIFICANT WEATHER AND/OR OBSTRUCTIONS TO VISIBILITY.

MTZ001>007-043-292200-
WEST OF THE DIVIDE

CITY           SKY/WX    TMP DP  RH WIND       PRES   REMARKS
KALISPELL      SUNNY     85  43  22 NE12      30.07F
MISSOULA       SUNNY     90  39  16 SE9       30.06F
BUTTE          SUNNY     80  34  19 VRB7G18   30.25F
MULLAN PASS    MOSUNNY   76  38  25 VRB3      30.23F
DEER LODGE       N/A     88  34  14 SE10      30.20F
EUREKA           N/A     82  39  21 CALM      30.07F
HAMILTON         N/A     82  46  28 N6        30.08F
LIBBY            N/A     86  41  20 NW5       30.04F
PLAINS           N/A     89  43  20 CALM      30.02F
RONAN            N/A     84  44  24 W6        30.12F
THOMPSON FALLS   N/A     89  44  20 NW3       30.03F
$$

MTZ008-052>055-292200-
SOUTHWEST MONTANA

CITY           SKY/WX    TMP DP  RH WIND       PRES   REMARKS
BOZEMAN        CLOUDY    83  41  22 CALM      30.19F
DILLON         SUNNY     82  38  20 N9        30.21F
W YELLOWSTONE  CLOUDY    81  21  11 S6G21     30.33F
ENNIS          SUNNY     84  34  16 N8        30.27F
THREE FORKS      N/A     86  86 100 N2        30.16F HX 112
TWIN BRIDGES     N/A     84  37  18 NW7       30.17F
$$

MTZ009-010-012-014-046-048-049-054-292200-
EAST SLOPES AND CENTRAL MONTANA

CITY           SKY/WX    TMP DP  RH WIND       PRES   REMARKS
CUT BANK       MOSUNNY   80  39  23 SE12      30.17F
GREAT FALLS    SUNNY     87  45  23 E12       30.16F
MALMSTROM AFB  SUNNY     85  44  23 NE5       30.15F
HELENA         CLOUDY    88  40  18 NE12      30.14F
CHOTEAU          N/A     88  39  18 SE10G16   30.17F
CONRAD           N/A     83  46  27 E5        30.17F
$$

MTZ011-013-016-021-045-047-050-051-292200-
NORTH CENTRAL MONTANA

CITY           SKY/WX    TMP DP  RH WIND       PRES   REMARKS
HAVRE          SUNNY     82  46  28 E3        30.15F
LEWISTOWN      SUNNY     85  40  20 NE3       30.22F
N BAR RANCH      N/A     81  41  24 S10       30.27F
CHINOOK          N/A     81  52  36 E13G18    30.15F
$$

MTZ017>020-022>027-061-062-292200-
NORTHEAST MONTANA

CITY           SKY/WX    TMP DP  RH WIND       PRES   REMARKS
GLASGOW        SUNNY     79  46  31 SE13      30.22F
JORDAN           N/A     86  46  24 S16G23    30.19F
SIDNEY         SUNNY     79  45  29 E5        30.24F
WOLF POINT     SUNNY     81  44  27 SE8       30.23F
PLENTYWOOD       N/A     77  43  29 SE5       30.26F
POPLAR           N/A     79  45  29 SE6       30.24F
SCOBEY           N/A     77  41  27 SE5       30.22F
$$

MTZ028>42-056>058-292200-
SOUTHCENTRAL AND SOUTHEAST MONTANA

CITY           SKY/WX    TMP DP  RH WIND       PRES   REMARKS
BAKER          SUNNY     84  46  26 SE14      30.26F
BILLINGS       MOSUNNY   81  51  35 NE7       30.21F
LIVINGSTON     SUNNY     83  42  23 E17       30.22F
MILES CITY     SUNNY     87  47  24 SE13G25   30.20F
EKALAKA          N/A     80  46  30 E14       30.23F
FORSYTH          N/A     86  48  26 SE13      30.19F
LAUREL           N/A     81  49  32 N5        30.18F
ROUNDUP          N/A     85  47  26 E6        30.10F
$$

REGIONAL REPORTS...DAKOTAS

CITY           SKY/WX    TMP DP  RH WIND       PRES   REMARKS
WILLISTON      SUNNY     80  39  23 N5        30.26F
MINOT          SUNNY     78  44  29 VRB3      30.24F
DICKINSON      SUNNY     79  42  26 E9        30.25F
CROSBY           N/A     73  39  29 E5        30.28F
WATFORD CITY     N/A     79  41  25 SE6       30.26F
BISMARCK       SUNNY     80  51  36 NE6       30.23F
GRAND FORKS    MOSUNNY   82  58  43 NW10      30.14F
FARGO          SUNNY     83  67  58 N14       30.14F
BUFFALO SD       N/A     82  47  29 E17       30.20F
RAPID CITY     SUNNY     83  58  42 NE13      30.24F
$$

REGIONAL REPORTS...WYOMING/IDAHO/WASHINGTON

CITY           SKY/WX    TMP DP  RH WIND       PRES   REMARKS
GILLETTE       SUNNY     87  44  22 NE12      30.25F
SHERIDAN       SUNNY     86  48  26 SE6       30.24F
BUFFALO WY     SUNNY     84  41  21 SE8       30.31F
CODY           SUNNY     79  48  34 NE8       30.27F
YELLOWSTONE LA   N/A     73  34  23 VRB7      30.44F
IDAHO FALLS    PTSUNNY   88  30  12 SW10      30.21F
SALMON         SUNNY     86  43  22 N7        30.12S
BOISE          PTSUNNY   88  42  20 W7        30.06F
SPOKANE        MOSUNNY   87  38  17 E8        29.99F
$$

REGIONAL REPORTS...ALBERTA

CITY           SKY/WX    TMP DP  RH WIND       PRES   REMARKS
EDMONTON       MOSUNNY   66  46  48 SE13G21   30.16F
CALGARY        PTSUNNY   70  50  49 SE8       30.14F
LETHBRIDGE     PTSUNNY   82  41  23 E8G30     30.12F
MEDICINE HAT   MOSUNNY   79  48  34 S7        30.14F
WATERTON GATE    N/A     81  45  28 E3          N/A
CARDSTON         N/A     84  43  23 S7          N/A
MILK RIVER       N/A     81  41  24 S9          N/A
ONEFOUR          N/A     81  41  24 S3          N/A
$$

REGIONAL REPORTS...SASKATCHEWAN

CITY           SKY/WX    TMP DP  RH WIND       PRES   REMARKS
SWIFT CURRENT  SUNNY     70  46  43 SE8       30.22F
REGINA         MOSUNNY   68  43  40 VRB3      30.25F
SASKATOON      PTSUNNY   66  39  37 NW8       30.25F
CYPRESS HILLS    N/A     72  46  40 S8          N/A
VAL MARIE        N/A     77  45  31 S15         N/A
ROCKGLEN         N/A     73  43  33 SE7         N/A
$$



USA.gov is the U.S. government's official web portal to all federal, state and local government web resources and services.